Location: Unspecified
(54.1780°N, 0.0000°E)
Time: 17:43:19
(UTC+00:00)

Vanguard 2 - Pass Details

Date: 21 June 2019
Orbit: 553 x 2938 km, 32.9° (Epoch: 21 July)

Event Time Altitude Azimuth Distance (km) Brightness Sun altitude
Rises 09:42:31 0° 221° (SW) 3,623 11.0 49.8°
Reaches altitude 10° 09:45:54 10° 200° (SSW) 3,024 10.9 50.2°
Maximum altitude 09:50:20 16° 164° (SSE) 3,010 11.4 50.7°
Drops below altitude 10° 09:56:02 10° 130° (SE) 4,067 12.1 51.3°
Sets 10:01:51 0° 113° (ESE) 5,598 12.5 52.0°
